�������l�o���
Date,Time,MP-1(��Sv/h),MP-2(��Sv/h),MP-3(��Sv/h),MP-4(��Sv/h),MP-5(��Sv/h),MP-6(��Sv/h),MP-7(��Sv/h),MP-8(��Sv/h),����,����(m/s),���J
2021/01/22,00:00,0.665,0.949,0.605,1.194,0.842,0.377,0.669,0.630,�k��,1.5,��
2021/01/22,00:10,0.665,0.948,0.605,1.193,0.841,0.376,0.667,0.630,�k�k��,2.2,��
2021/01/22,00:20,0.666,0.948,0.606,1.192,0.839,0.378,0.666,0.631,�k��,4.8,��
2021/01/22,00:30,0.665,0.950,0.604,1.193,0.842,0.377,0.668,0.631,���k��,4.6,��
2021/01/22,00:40,0.665,0.948,0.604,1.194,0.840,0.379,0.667,0.632,�k��,4.6,��
2021/01/22,00:50,0.667,0.947,0.605,1.194,0.841,0.377,0.667,0.631,�k��,5.8,��
2021/01/22,01:00,0.664,0.948,0.605,1.195,0.843,0.378,0.669,0.631,���k��,5.0,��
2021/01/22,01:10,0.665,0.949,0.606,1.195,0.842,0.378,0.667,0.631,���k��,7.1,��
2021/01/22,01:20,0.666,0.949,0.607,1.196,0.841,0.377,0.668,0.632,���k��,6.4,��
2021/01/22,01:30,0.666,0.948,0.605,1.194,0.840,0.378,0.667,0.630,���k��,6.7,��
2021/01/22,01:40,0.666,0.948,0.607,1.193,0.840,0.378,0.668,0.630,��,4.4,��
2021/01/22,01:50,0.666,0.949,0.605,1.194,0.841,0.378,0.670,0.631,��,4.3,��
2021/01/22,02:00,0.666,0.948,0.606,1.194,0.841,0.379,0.669,0.631,��,2.6,��
2021/01/22,02:10,0.668,0.950,0.606,1.194,0.841,0.377,0.668,0.631,��,3.6,��
2021/01/22,02:20,0.666,0.947,0.606,1.195,0.840,0.378,0.669,0.630,��,3.9,��
2021/01/22,02:30,0.667,0.946,0.607,1.194,0.840,0.376,0.668,0.630,��,3.0,��
2021/01/22,02:40,0.667,0.947,0.606,1.198,0.842,0.379,0.667,0.631,��,5.1,��
2021/01/22,02:50,0.669,0.947,0.608,1.192,0.840,0.377,0.669,0.632,���k��,4.0,��
2021/01/22,03:00,0.668,0.947,0.604,1.194,0.840,0.377,0.668,0.630,���k��,2.3,��
2021/01/22,03:10,0.666,0.949,0.606,1.195,0.842,0.378,0.670,0.631,��,1.1,��
2021/01/22,03:20,0.667,0.948,0.605,1.197,0.840,0.379,0.669,0.633,�k�k��,2.3,��
2021/01/22,03:30,0.669,0.949,0.607,1.196,0.841,0.378,0.671,0.631,�k�k��,4.6,��
2021/01/22,03:40,0.668,0.948,0.606,1.196,0.843,0.378,0.670,0.632,�k�k��,5.4,��
2021/01/22,03:50,0.665,0.949,0.606,1.196,0.841,0.378,0.670,0.633,�k�k��,6.1,��
2021/01/22,04:00,0.666,0.950,0.607,1.195,0.841,0.378,0.669,0.631,�k��,5.1,��
2021/01/22,04:10,0.667,0.948,0.607,1.195,0.844,0.378,0.669,0.630,�k��,4.4,��
2021/01/22,04:20,0.667,0.949,0.609,1.196,0.842,0.378,0.671,0.630,�k��,3.8,��
2021/01/22,04:30,0.666,0.948,0.606,1.196,0.841,0.379,0.669,0.631,�k��,3.1,��
2021/01/22,04:40,0.667,0.949,0.606,1.193,0.841,0.378,0.669,0.633,�k��,3.9,��
2021/01/22,04:50,0.666,0.951,0.606,1.195,0.842,0.377,0.671,0.631,�k��,5.0,��
2021/01/22,05:00,0.666,0.950,0.608,1.197,0.842,0.378,0.670,0.632,�k��,5.1,��
2021/01/22,05:10,0.666,0.946,0.606,1.196,0.841,0.378,0.668,0.632,�k��,4.8,��
2021/01/22,05:20,0.667,0.948,0.607,1.196,0.841,0.378,0.670,0.632,��,3.6,��
2021/01/22,05:30,0.667,0.950,0.607,1.196,0.843,0.379,0.670,0.631,��,3.6,��
2021/01/22,05:40,0.669,0.951,0.605,1.196,0.843,0.378,0.672,0.630,���k��,4.0,��
2021/01/22,05:50,0.667,0.949,0.607,1.196,0.842,0.379,0.671,0.632,��,3.7,��
2021/01/22,06:00,0.665,0.950,0.607,1.196,0.842,0.378,0.669,0.632,��,4.8,��
2021/01/22,06:10,0.666,0.950,0.607,1.196,0.840,0.379,0.671,0.633,���쐼,5.3,��
2021/01/22,06:20,0.666,0.951,0.608,1.196,0.840,0.378,0.670,0.632,��,4.8,��
2021/01/22,06:30,0.668,0.948,0.607,1.195,0.841,0.379,0.669,0.633,���k��,4.3,��
2021/01/22,06:40,0.666,0.950,0.606,1.196,0.841,0.379,0.671,0.632,���k��,4.1,��
2021/01/22,06:50,0.667,0.949,0.607,1.195,0.842,0.379,0.670,0.632,���k��,4.8,��
2021/01/22,07:00,0.666,0.950,0.608,1.197,0.841,0.377,0.672,0.632,��,6.3,��
2021/01/22,07:10,0.668,0.950,0.607,1.195,0.842,0.378,0.671,0.630,���k��,6.1,��
2021/01/22,07:20,0.669,0.950,0.609,1.194,0.841,0.378,0.669,0.632,��,6.1,��
2021/01/22,07:30,0.667,0.948,0.606,1.197,0.841,0.379,0.670,0.631,���k��,4.5,��
2021/01/22,07:40,0.668,0.949,0.608,1.196,0.839,0.378,0.669,0.630,���k��,3.7,��
2021/01/22,07:50,0.668,0.948,0.608,1.196,0.840,0.379,0.670,0.632,�k��,1.7,��
2021/01/22,08:00,0.668,0.949,0.608,1.197,0.840,0.378,0.668,0.632,�k��,1.9,��
2021/01/22,08:10,0.664,0.945,0.607,1.197,0.841,0.380,0.670,0.632,-,CALM,��
2021/01/22,08:20,0.665,0.949,0.608,1.195,0.840,0.378,0.670,0.632,���쐼,0.9,��
2021/01/22,08:30,0.664,0.947,0.608,1.196,0.842,0.379,0.670,0.630,-,CALM,��
2021/01/22,08:40,0.665,0.946,0.606,1.196,0.842,0.379,0.670,0.632,�쐼,0.9,��
2021/01/22,08:50,0.666,0.945,0.608,1.196,0.840,0.378,0.671,0.633,��,0.9,��
2021/01/22,09:00,0.666,0.946,0.608,1.196,0.842,0.379,0.671,0.633,�쐼,0.9,��
2021/01/22,09:10,0.668,0.946,0.607,1.197,0.843,0.378,0.672,0.631,��쓌,0.6,��
2021/01/22,09:20,0.667,0.947,0.608,1.195,0.841,0.379,0.672,0.632,��쐼,1.1,��
2021/01/22,09:30,0.666,0.945,0.608,1.200,0.841,0.379,0.670,0.634,�k�k��,0.8,��
2021/01/22,09:40,0.666,0.946,0.607,1.195,0.842,0.380,0.670,0.632,�k��,2.0,��
2021/01/22,09:50,0.668,0.949,0.609,1.197,0.843,0.380,0.668,0.633,���쐼,2.3,��
2021/01/22,10:00,0.668,0.948,0.607,1.198,0.845,0.380,0.670,0.634,��,7.9,��
2021/01/22,10:10,0.667,0.947,0.607,1.198,0.842,0.381,0.671,0.632,-,-,��
2021/01/22,10:20,0.666,0.948,0.607,1.198,0.842,0.380,0.670,0.632,-,-,��
2021/01/22,10:30,0.669,0.947,0.609,1.196,0.844,0.379,0.670,0.633,-,-,��
2021/01/22,10:40,0.667,0.945,0.610,1.197,0.841,0.380,0.670,0.633,-,-,��
2021/01/22,10:50,0.669,0.945,0.609,1.199,0.843,0.379,0.670,0.631,-,-,��
2021/01/22,11:00,0.662,0.943,0.609,1.198,0.842,0.377,0.669,0.634,-,-,��
2021/01/22,11:10,0.663,0.945,0.609,1.200,0.843,0.377,0.670,0.633,-,-,��
2021/01/22,11:20,0.667,0.944,0.609,1.198,0.843,0.378,0.669,0.632,-,-,��
2021/01/22,11:30,0.670,0.943,0.607,1.198,0.845,0.377,0.670,0.634,-,-,��
2021/01/22,11:40,0.669,0.945,0.609,1.198,0.845,0.377,0.670,0.632,-,-,��
2021/01/22,11:50,0.672,0.948,0.607,1.197,0.844,0.377,0.669,0.632,-,-,��
2021/01/22,12:00,0.672,0.946,0.609,1.199,0.844,0.378,0.669,0.632,-,-,��
2021/01/22,12:10,0.670,0.948,0.608,1.198,0.846,0.378,0.670,0.632,-,-,��
2021/01/22,12:20,0.673,0.947,0.609,1.199,0.843,0.377,0.670,0.629,-,-,��
2021/01/22,12:30,0.670,0.949,0.609,1.197,0.844,0.378,0.670,0.633,-,-,��
2021/01/22,12:40,0.671,0.950,0.609,1.198,0.845,0.378,0.670,0.632,-,-,��
2021/01/22,12:50,0.669,0.949,0.610,1.197,0.846,0.380,0.671,0.631,-,-,��
2021/01/22,13:00,0.670,0.947,0.609,1.199,0.842,0.380,0.670,0.634,-,-,��
2021/01/22,13:10,0.668,0.947,0.608,1.200,0.843,0.378,0.672,0.634,��,4.2,��
2021/01/22,13:20,0.669,0.944,0.606,1.198,0.842,0.380,0.672,0.632,��,7.1,��
2021/01/22,13:30,0.668,0.944,0.606,1.198,0.844,0.380,0.670,0.628,��,7.6,��
2021/01/22,13:40,0.669,0.945,0.606,1.198,0.843,0.380,0.671,0.629,��,8.5,��
2021/01/22,13:50,0.669,0.945,0.608,1.200,0.843,0.379,0.670,0.630,��,5.4,��
2021/01/22,14:00,0.666,0.946,0.606,1.199,0.843,0.379,0.671,0.630,�k�k��,6.7,��
2021/01/22,14:10,0.668,0.946,0.608,1.198,0.843,0.381,0.671,0.631,�k�k��,5.7,��
2021/01/22,14:20,0.668,0.946,0.608,1.199,0.844,0.379,0.670,0.631,�k�k��,5.3,��
2021/01/22,14:30,0.668,0.945,0.607,1.199,0.845,0.378,0.671,0.629,�k�k��,5.2,��
2021/01/22,14:40,0.669,0.946,0.607,1.199,0.843,0.379,0.671,0.630,�k�k��,4.0,��
2021/01/22,14:50,0.669,0.945,0.609,1.201,0.843,0.379,0.671,0.631,�k�k��,3.5,��
2021/01/22,15:00,0.669,0.947,0.609,1.201,0.846,0.380,0.670,0.631,�k�k��,3.7,��
2021/01/22,15:10,0.669,0.950,0.608,1.200,0.845,0.379,0.670,0.630,�k�k��,2.9,��
2021/01/22,15:20,0.671,0.949,0.606,1.198,0.845,0.379,0.671,0.631,�k,2.6,��
2021/01/22,15:30,0.669,0.950,0.609,1.201,0.845,0.379,0.670,0.630,���k��,0.6,��
2021/01/22,15:40,0.671,0.953,0.608,1.201,0.844,0.379,0.670,0.632,��,1.2,��
2021/01/22,15:50,0.671,0.952,0.608,1.200,0.844,0.380,0.671,0.634,���쐼,6.4,��
2021/01/22,16:00,0.670,0.951,0.609,1.197,0.844,0.379,0.672,0.633,��,7.3,��
2021/01/22,16:10,0.671,0.951,0.607,1.199,0.844,0.378,0.672,0.634,��,6.9,��
2021/01/22,16:20,0.669,0.951,0.608,1.199,0.844,0.380,0.670,0.633,��,5.7,��
2021/01/22,16:30,0.669,0.951,0.608,1.199,0.845,0.381,0.670,0.633,��,5.0,��
2021/01/22,16:40,0.668,0.952,0.610,1.200,0.844,0.379,0.670,0.632,�k��,2.8,��
2021/01/22,16:50,0.669,0.951,0.608,1.198,0.843,0.380,0.671,0.631,���k��,3.2,��
2021/01/22,17:00,0.670,0.951,0.608,1.199,0.846,0.378,0.670,0.631,���k��,4.4,��
2021/01/22,17:10,0.668,0.951,0.609,1.198,0.847,0.379,0.669,0.633,���k��,7.0,��
2021/01/22,17:20,0.668,0.953,0.608,1.199,0.846,0.380,0.671,0.632,���k��,8.6,��
2021/01/22,17:30,0.669,0.950,0.609,1.201,0.847,0.380,0.670,0.632,��,7.3,��
2021/01/22,17:40,0.669,0.951,0.608,1.197,0.846,0.379,0.670,0.632,��,7.3,��
2021/01/22,17:50,0.669,0.950,0.608,1.199,0.845,0.378,0.671,0.632,���k��,6.9,��
2021/01/22,18:00,0.667,0.952,0.607,1.202,0.847,0.380,0.671,0.632,���k��,7.7,��
2021/01/22,18:10,0.668,0.952,0.607,1.200,0.846,0.378,0.670,0.632,���k��,9.0,��
2021/01/22,18:20,0.668,0.949,0.607,1.198,0.846,0.379,0.672,0.632,��,6.9,��
2021/01/22,18:30,0.668,0.952,0.609,1.201,0.848,0.379,0.670,0.632,��,7.2,��
2021/01/22,18:40,0.666,0.951,0.606,1.199,0.844,0.379,0.670,0.632,���k��,7.9,��
2021/01/22,18:50,0.667,0.951,0.608,1.202,0.846,0.379,0.671,0.631,��,8.0,��
2021/01/22,19:00,0.668,0.948,0.608,1.199,0.845,0.380,0.671,0.632,��,7.6,��
2021/01/22,19:10,0.668,0.951,0.607,1.201,0.845,0.379,0.671,0.632,��,6.5,��
2021/01/22,19:20,0.669,0.953,0.608,1.198,0.845,0.378,0.669,0.633,��,5.8,��
2021/01/22,19:30,0.667,0.951,0.608,1.197,0.845,0.379,0.670,0.629,��,6.1,��
2021/01/22,19:40,0.667,0.956,0.607,1.201,0.846,0.379,0.671,0.633,��,6.0,��
2021/01/22,19:50,0.667,0.951,0.608,1.199,0.847,0.377,0.671,0.633,��,4.7,��
2021/01/22,20:00,0.668,0.950,0.608,1.199,0.846,0.379,0.671,0.631,��,4.6,��
2021/01/22,20:10,0.667,0.951,0.608,1.201,0.846,0.378,0.672,0.632,��,6.2,��
2021/01/22,20:20,0.665,0.950,0.608,1.199,0.847,0.378,0.672,0.632,��,6.8,��
2021/01/22,20:30,0.668,0.952,0.608,1.199,0.845,0.380,0.670,0.632,��,6.7,��
2021/01/22,20:40,0.667,0.951,0.608,1.199,0.845,0.380,0.672,0.630,��,6.5,��
2021/01/22,20:50,0.666,0.952,0.607,1.198,0.846,0.379,0.671,0.632,��,5.6,��
2021/01/22,21:00,0.667,0.949,0.608,1.201,0.844,0.379,0.671,0.632,��,5.7,��
2021/01/22,21:10,0.667,0.951,0.608,1.200,0.844,0.378,0.669,0.631,��,7.4,��
2021/01/22,21:20,0.668,0.952,0.609,1.198,0.846,0.378,0.671,0.633,��,7.6,��
2021/01/22,21:30,0.668,0.949,0.607,1.201,0.846,0.379,0.670,0.632,��,6.5,��
2021/01/22,21:40,0.668,0.951,0.608,1.200,0.845,0.378,0.671,0.630,��,7.9,��
2021/01/22,21:50,0.666,0.949,0.607,1.201,0.843,0.379,0.672,0.630,��,7.8,��
2021/01/22,22:00,0.666,0.950,0.608,1.198,0.847,0.379,0.672,0.632,�k��,5.5,��
2021/01/22,22:10,0.667,0.949,0.607,1.199,0.846,0.376,0.670,0.631,�k�k��,6.9,��
2021/01/22,22:20,0.667,0.947,0.608,1.200,0.846,0.379,0.671,0.632,�k�k��,7.0,��
2021/01/22,22:30,0.667,0.953,0.607,1.201,0.847,0.378,0.670,0.631,�k,7.1,��
2021/01/22,22:40,0.667,0.949,0.608,1.198,0.847,0.377,0.672,0.632,�k,8.8,��
2021/01/22,22:50,0.669,0.949,0.606,1.200,0.846,0.379,0.671,0.632,�k,9.5,��
2021/01/22,23:00,0.667,0.952,0.608,1.201,0.845,0.379,0.669,0.632,�k,9.8,��
2021/01/22,23:10,0.664,0.951,0.608,1.200,0.845,0.378,0.670,0.631,�k,9.1,��
2021/01/22,23:20,0.666,0.951,0.607,1.200,0.845,0.379,0.671,0.630,�k,8.4,��
2021/01/22,23:30,0.667,0.951,0.606,1.198,0.845,0.379,0.671,0.631,�k,8.1,��
2021/01/22,23:40,0.665,0.950,0.606,1.199,0.845,0.379,0.670,0.631,�k,7.8,��
2021/01/22,23:50,0.666,0.951,0.608,1.198,0.845,0.378,0.668,0.630,�k,7.7,��
